Погода в Уайт-Ривере

ЮАР     25°19′34″S   31°01′19″E
темп.,
°C
ветер,
м/с
пор.,
м/с
влажн.,
%
обл.,
%
осадки,
мм/ч
давл.,
гПа
погр.,
м
7 августа, вс
вс723:00+15з21395 0.0 102017
02:00+15з2135100 0.0 101915
05:00+13зюз21495 0.0 101918
08:00+18юз11455 0.0 1021103
11:00+26в22205 0.0 10191106
14:00+26всв43275 0.0 10161519
17:00+23всв36330 0.0 1016336
20:00+17з11521 0.0 101911
8 августа, пн
пн823:00+15сз11660 0.0 102011
02:00+14зсз11594 0.0 101912
05:00+13ссз11595 0.0 101813
08:00+18с12425 0.0 1017126
11:00+27ссв36220 0.0 10151891
14:00+29сз4101714 0.0 10123600
17:00+24с272539 0.0 1012414
20:00+19сз2431100 0.0 1016181
9 августа, вт
вт923:00+15ююз113319 0.0 102024
02:00+12зюз11620 0.0 102227
05:00+13юз1459100 0.0 1023277
08:00+14ююз245397 0.0 1025356
11:00+15юв136393 0.0 1026725
14:00+18в225645 0.1 10221239
17:00+18всв24565 0.0 1022353
20:00+12сз11830 0.0 102514
10 августа, ср
ср1023:00+11сз11890 0.0 102511
02:00+10зсз11950 0.0 102412
05:00+10з11950 0.0 102417
08:00+15зюз11670 0.0 1024158
11:00+23в22360 0.0 10211094
14:00+25всв33290 0.0 10171729
17:00+21св37410 0.0 1017481
20:00+15сз11620 0.0 102018
11 августа, чт
чт1123:00+13з11690 0.0 102113
02:00+12з21710 0.0 102118
05:00+12з21660 0.0 102116
08:00+17зюз11470 0.0 1021124
11:00+25в22280 0.0 10191123
14:00+27всв44240 0.0 10151803
17:00+23ссв48330 0.0 1015755
20:00+16сз22520 0.0 101827